This is the latest recevied weather packets stored in our database for station/object W5ALL-WX. If no packets are shown the sender has not sent any weather packets the latest 10 day(s).
| Time | Temp. | Humidity | Pressure | Rain* | Wind** | Luminosity | Snow |
|---|---|---|---|---|---|---|---|
| 1777463159 | 19.44° C | 12% | 1015.9 hPa | 0 mm | - | - | - |
| 1777462858 | 18.89° C | 13% | 1015.9 hPa | 0 mm | - | - | - |
| 1777462559 | 18.33° C | 13% | 1016 hPa | 0 mm | - | - | - |
| 1777462259 | 18.33° C | 14% | 1016 hPa | 0 mm | - | - | - |
| 1777462028 | 18.33° C | 14% | 1015.9 hPa | 0 mm | - | - | - |
| 1777461729 | 18.33° C | 14% | 1015.9 hPa | 0 mm | - | - | - |
| 1777461428 | 18.89° C | 14% | 1016 hPa | 0 mm | - | - | - |
| 1777461129 | 19.44° C | 12% | 1016 hPa | 0 mm | - | - | - |
| 1777460829 | 19.44° C | 12% | 1015.9 hPa | 0 mm | - | - | - |
| 1777460528 | 18.89° C | 12% | 1015.7 hPa | 0 mm | - | - | - |
| 1777460228 | 18.89° C | 12% | 1015.7 hPa | 0 mm | - | - | - |
| 1777459928 | 18.89° C | 12% | 1015.9 hPa | 0 mm | - | - | - |
| 1777459628 | 19.44° C | 12% | 1015.7 hPa | 0 mm | - | - | - |
| 1777459328 | 19.44° C | 12% | 1015.7 hPa | 0 mm | - | - | - |
| 1777459028 | 19.44° C | 11% | 1015.7 hPa | 0 mm | - | - | - |
| 1777458728 | 19.44° C | 11% | 1015.7 hPa | 0 mm | - | - | - |
| 1777458428 | 19.44° C | 11% | 1015.7 hPa | 0 mm | - | - | - |
| 1777458128 | 20° C | 11% | 1015.5 hPa | 0 mm | - | - | - |
| 1777457828 | 20.56° C | 10% | 1015.6 hPa | 0 mm | - | - | - |
| 1777457528 | 20.56° C | 9% | 1015.5 hPa | 0 mm | - | - | - |
| 1777457228 | 20.56° C | 10% | 1015.4 hPa | 0 mm | - | - | - |
| 1777456928 | 20.56° C | 10% | 1015.4 hPa | 0 mm | - | - | - |
| 1777456628 | 20.56° C | 11% | 1015.4 hPa | 0 mm | - | - | - |
| 1777456328 | 20.56° C | 10% | 1015.2 hPa | 0 mm | - | - | - |
| 1777456028 | 20° C | 10% | 1015.2 hPa | 0 mm | - | - | - |
* Rain latest hour (hover to see other rain measurements)
** Current wind speed in m/s (hover to see current wind gust speed)